| time (UTC) | temp C | wind direction | speed KPH | gust KPH | rain 1hr cm | rain 24hr cm | rain mn cm | humidity % | barometer mb |
| 20260507171515 | 8 | 169 | 0.0 | 3.2 | 0.03 | 0.03 | 0.03 | 90 | 1016.5 |
| 20260507170020 | 8 | 166 | 0.0 | 6.4 | 0.03 | 0.03 | 0.03 | 89 | 1016.4 |
| 20260507164521 | 9 | 173 | 1.6 | 6.4 | 0.03 | 0.03 | 0.03 | 88 | 1016.3 |
| 20260507163011 | 9 | 147 | 0.0 | 1.6 | 0.00 | 0.00 | 0.00 | 87 | 1016.3 |
| 20260507160043 | 10 | 149 | 0.0 | 3.2 | 0.00 | 0.00 | 0.00 | 85 | 1016.1 |
| 20260507154541 | 10 | 86 | 1.6 | 4.8 | 0.00 | 0.00 | 0.00 | 83 | 1016.1 |
| 20260507153042 | 10 | 160 | 0.0 | 4.8 | 0.00 | 0.00 | 0.00 | 82 | 1015.9 |
| 20260507151538 | 10 | 109 | 0.0 | 4.8 | 0.00 | 0.00 | 0.00 | 80 | 1015.8 |
| 20260507150041 | 10 | 76 | 1.6 | 4.8 | 0.00 | 0.00 | 0.00 | 80 | 1015.7 |
| 20260507144538 | 10 | 94 | 0.0 | 3.2 | 0.00 | 0.00 | 0.00 | 79 | 1015.7 |
| 20260507143040 | 9 | 68 | 0.0 | 4.8 | 0.00 | 0.00 | 0.00 | 80 | 1015.6 |
| 20260507141535 | 9 | 59 | 1.6 | 14.5 | 0.00 | 0.00 | 0.00 | 79 | 1015.6 |
| 20260507140038 | 9 | 105 | 3.2 | 6.4 | 0.00 | 0.00 | 0.00 | 79 | 1015.5 |
| 20260507134532 | 9 | 63 | 3.2 | 8.0 | 0.00 | 0.00 | 0.00 | 79 | 1015.4 |
| 20260507133032 | 9 | 98 | 6.4 | 14.5 | 0.00 | 0.00 | 0.00 | 80 | 1015.4 |
| 20260507131531 | 9 | 91 | 4.8 | 14.5 | 0.00 | 0.00 | 0.00 | 79 | 1015.3 |
| 20260507130037 | 9 | 53 | 4.8 | 9.7 | 0.00 | 0.00 | 0.00 | 80 | 1015.2 |
| 20260507124535 | 9 | 50 | 4.8 | 9.7 | 0.00 | 0.00 | 0.00 | 80 | 1015.1 |
| 20260507123023 | 8 | 56 | 8.0 | 19.3 | 0.00 | 0.00 | 0.00 | 80 | 1015.0 |
| 20260507121519 | 8 | 109 | 3.2 | 16.1 | 0.00 | 0.00 | 0.00 | 82 | 1014.9 |
| 20260507120018 | 8 | 86 | 1.6 | 12.9 | 0.00 | 0.00 | 0.00 | 83 | 1014.9 |
| 20260507114517 | 8 | 34 | 4.8 | 12.9 | 0.00 | 0.00 | 0.00 | 83 | 1014.9 |
| 20260507113034 | 8 | 8 | 4.8 | 14.5 | 0.00 | 0.00 | 0.00 | 84 | 1014.8 |
| 20260507111514 | 8 | 65 | 3.2 | 14.5 | 0.00 | 0.00 | 0.00 | 84 | 1014.6 |
| 20260507110016 | 8 | 52 | 4.8 | 12.9 | 0.00 | 0.00 | 0.00 | 85 | 1014.6 |
| 20260507104514 | 8 | 90 | 4.8 | 14.5 | 0.00 | 0.00 | 0.00 | 86 | 1014.5 |
| 20260507103017 | 8 | 344 | 3.2 | 12.9 | 0.00 | 0.00 | 0.00 | 85 | 1014.4 |
| 20260507101516 | 8 | 36 | 3.2 | 16.1 | 0.00 | 0.00 | 0.00 | 84 | 1014.3 |
| 20260507100007 | 8 | 2 | 1.6 | 12.9 | 0.00 | 0.00 | 0.00 | 86 | 1014.2 |
| 20260507094505 | 8 | 59 | 3.2 | 12.9 | 0.00 | 0.05 | 0.00 | 85 | 1014.1 |
| 20260507093002 | 8 | 55 | 4.8 | 16.1 | 0.00 | 0.05 | 0.00 | 85 | 1013.8 |
| 20260507091503 | 8 | 86 | 1.6 | 14.5 | 0.00 | 0.05 | 0.00 | 85 | 1013.6 |
| 20260507090057 | 8 | 40 | 3.2 | 11.3 | 0.00 | 0.05 | 0.00 | 85 | 1013.4 |
| 20260507084609 | 8 | 86 | 8.0 | 16.1 | 0.00 | 0.15 | 0.00 | 85 | 1013.3 |
| 20260507083055 | 7 | 358 | 4.8 | 12.9 | 0.00 | 0.15 | 0.00 | 85 | 1013.1 |
| 20260507081559 | 7 | 323 | 6.4 | 16.1 | 0.00 | 0.15 | 0.00 | 86 | 1012.9 |
| 20260507080051 | 7 | 48 | 8.0 | 17.7 | 0.00 | 0.15 | 0.00 | 86 | 1012.7 |
| 20260507074555 | 7 | 68 | 6.4 | 19.3 | 0.00 | 0.38 | 0.00 | 87 | 1012.6 |
| 20260507073045 | 7 | 81 | 3.2 | 16.1 | 0.00 | 0.38 | 0.00 | 88 | 1012.6 |
| 20260507071543 | 7 | 5 | 1.6 | 14.5 | 0.00 | 0.38 | 0.00 | 88 | 1012.4 |
| 20260507070045 | 7 | 71 | 8.0 | 16.1 | 0.00 | 0.38 | 0.00 | 88 | 1012.3 |
| 20260507064540 | 7 | 360 | 4.8 | 16.1 | 0.00 | 0.71 | 0.00 | 89 | 1012.2 |
| 20260507063041 | 7 | 69 | 3.2 | 14.5 | 0.00 | 0.71 | 0.00 | 89 | 1012.1 |
| 20260507061537 | 7 | 76 | 6.4 | 14.5 | 0.00 | 0.71 | 0.00 | 89 | 1011.9 |
| 20260507060033 | 7 | 23 | 6.4 | 16.1 | 0.00 | 0.71 | 0.00 | 89 | 1011.7 |
| 20260507054529 | 7 | 356 | 4.8 | 16.1 | 0.00 | 0.86 | 0.00 | 89 | 1011.6 |
| 20260507053027 | 7 | 28 | 4.8 | 16.1 | 0.00 | 0.86 | 0.00 | 89 | 1011.5 |
| 20260507051524 | 7 | 76 | 4.8 | 17.7 | 0.00 | 0.86 | 0.00 | 89 | 1011.4 |
| 20260507050028 | 7 | 116 | 1.6 | 14.5 | 0.00 | 0.86 | 0.00 | 89 | 1011.2 |
| 20260507044520 | 7 | 76 | 4.8 | 12.9 | 0.00 | 0.97 | 0.00 | 89 | 1011.1 |
| 20260507043023 | 7 | 46 | 3.2 | 16.1 | 0.00 | 0.97 | 0.00 | 89 | 1010.8 |
| 20260507041515 | 7 | 27 | 3.2 | 14.5 | 0.00 | 0.97 | 0.00 | 90 | 1010.9 |
| 20260507040013 | 6 | 76 | 1.6 | 12.9 | 0.00 | 0.97 | 0.00 | 90 | 1010.7 |
| 20260507034520 | 6 | 95 | 6.4 | 16.1 | 0.00 | 1.12 | 0.00 | 90 | 1010.6 |
| 20260507033012 | 6 | 40 | 6.4 | 17.7 | 0.00 | 1.12 | 0.00 | 90 | 1010.4 |
| 20260507031507 | 6 | 61 | 6.4 | 16.1 | 0.00 | 1.12 | 0.00 | 90 | 1010.5 |
| 20260507030007 | 6 | 86 | 8.0 | 22.5 | 0.00 | 1.12 | 0.00 | 90 | 1010.4 |
| 20260507024503 | 6 | 102 | 8.0 | 19.3 | 0.00 | 1.37 | 0.00 | 90 | 1010.2 |
| 20260507023110 | 6 | 70 | 6.4 | 17.7 | 0.00 | 1.37 | 0.00 | 90 | 1010.2 |
| 20260507021557 | 6 | 52 | 8.0 | 17.7 | 0.00 | 1.37 | 0.00 | 90 | 1010.2 |
| 20260507014556 | 7 | 359 | 3.2 | 12.9 | 0.00 | 1.65 | 0.00 | 90 | 1009.9 |
| 20260507013053 | 7 | 63 | 3.2 | 14.5 | 0.00 | 1.65 | 0.00 | 90 | 1009.9 |
| 20260507011551 | 7 | 14 | 6.4 | 16.1 | 0.00 | 1.65 | 0.00 | 89 | 1010.0 |
| 20260507010049 | 7 | 56 | 3.2 | 14.5 | 0.00 | 1.65 | 0.00 | 89 | 1009.8 |
| 20260507004548 | 7 | 2 | 3.2 | 9.7 | 0.00 | 1.78 | 0.00 | 89 | 1009.7 |
| 20260507003046 | 7 | 359 | 1.6 | 14.5 | 0.00 | 1.78 | 0.00 | 89 | 1009.5 |
| 20260507001607 | 7 | 94 | 6.4 | 22.5 | 0.00 | 1.78 | 0.00 | 89 | 1009.3 |
| 20260507000043 | 7 | 51 | 3.2 | 17.7 | 0.00 | 1.78 | 0.00 | 90 | 1009.3 |
| 20260506234536 | 7 | 59 | 4.8 | 14.5 | 0.00 | 1.83 | 0.00 | 89 | 1009.2 |
| 20260506233033 | 8 | 343 | 3.2 | 16.1 | 0.00 | 1.83 | 0.00 | 88 | 1009.1 |
| 20260506231529 | 8 | 320 | 3.2 | 17.7 | 0.00 | 1.83 | 0.00 | 88 | 1009.1 |
| 20260506230043 | 9 | 37 | 4.8 | 17.7 | 0.00 | 1.83 | 0.00 | 88 | 1009.1 |
| 20260506224523 | 9 | 57 | 6.4 | 17.7 | 0.00 | 1.83 | 0.00 | 87 | 1009.0 |
| 20260506223027 | 10 | 50 | 3.2 | 14.5 | 0.00 | 1.83 | 0.00 | 87 | 1008.7 |
| 20260506221518 | 10 | 348 | 3.2 | 11.3 | 0.00 | 1.83 | 0.00 | 88 | 1008.6 |
| 20260506220015 | 10 | 2 | 0.0 | 9.7 | 0.00 | 1.83 | 0.00 | 87 | 1008.5 |
| 20260506214513 | 10 | 76 | 1.6 | 8.0 | 0.00 | 1.83 | 1.83 | 88 | 1008.5 |
| 20260506213011 | 10 | 60 | 1.6 | 14.5 | 0.00 | 1.83 | 1.83 | 88 | 1008.5 |
| 20260506211509 | 10 | 350 | 1.6 | 8.0 | 0.00 | 1.83 | 1.83 | 88 | 1008.5 |
| 20260506210009 | 10 | 30 | 3.2 | 9.7 | 0.00 | 1.83 | 1.83 | 88 | 1008.4 |
| 20260506204505 | 10 | 65 | 4.8 | 12.9 | 0.00 | 1.83 | 1.83 | 88 | 1008.3 |
| 20260506203002 | 10 | 49 | 3.2 | 14.5 | 0.00 | 1.83 | 1.83 | 88 | 1008.1 |
| 20260506201701 | 10 | 40 | 4.8 | 17.7 | 0.00 | 1.83 | 1.83 | 89 | 1008.1 |
| 20260506194601 | 10 | 54 | 4.8 | 9.7 | 0.00 | 1.83 | 1.83 | 89 | 1008.1 |
| 20260506193022 | 10 | 66 | 3.2 | 12.9 | 0.00 | 1.83 | 1.83 | 90 | 1007.9 |
| 20260506191512 | 10 | 76 | 3.2 | 12.9 | 0.00 | 1.83 | 1.83 | 90 | 1007.8 |
| 20260506190013 | 10 | 344 | 1.6 | 9.7 | 0.00 | 1.83 | 1.83 | 90 | 1007.7 |
| 20260506184509 | 10 | 69 | 4.8 | 12.9 | 0.00 | 1.83 | 1.83 | 89 | 1007.5 |
| 20260506183007 | 11 | 344 | 3.2 | 12.9 | 0.00 | 1.83 | 1.83 | 90 | 1007.4 |
| 20260506181507 | 11 | 60 | 4.8 | 12.9 | 0.00 | 1.83 | 1.83 | 89 | 1007.2 |
| 20260506180009 | 11 | 81 | 1.6 | 9.7 | 0.00 | 1.83 | 1.83 | 90 | 1007.1 |
| 20260506174504 | 11 | 27 | 1.6 | 8.0 | 0.00 | 1.83 | 1.83 | 89 | 1006.9 |
| 20260506173005 | 11 | 57 | 3.2 | 9.7 | 0.00 | 1.83 | 1.83 | 89 | 1006.8 |